Sharm El Sheikh, Egypt

3:26 AM EET on September 23, 2017 (GMT +0200)
Sharm El Sheikh

Weather History for HESH - March, 2013

Change the Weather History Date:

Tuesday, March 26, 2013

  Actual Average Record
Temperature  
Mean Temperature 78 °F -  
Max Temperature 95 °F 85 °F - ()
Min Temperature 62 °F 67 °F - ()
Cooling Degree Days 14    
Growing Degree Days 28 (Base 50)    
Moisture  
Dew Point 33 °F    
Average Humidity 21    
Maximum Humidity 44    
Minimum Humidity 8    
Precipitation  
Precipitation 0.00 in 0.00 in - ()
Sea Level Pressure  
Sea Level Pressure 29.80 in    
Wind  
Wind Speed 4 mph ()    
Max Wind Speed 9 mph    
Max Gust Speed -    
Visibility 5.0 miles    
Events      
T = Trace of Precipitation, MM = Missing Value Source: Averaged Metar Reports

Daily Weather History Graph

Daily Weather History Graph

Search for Another Location

Airport or City:

Trip Planner

Search our weather history database for the weather conditions in past years. The results will help you decide how hot, cold, wet, or windy it might be!

Date:

Astronomy

Mar. 26, 2013 Rise Set
Actual Time 5:39 AM EET 5:57 PM EET
Civil Twilight 5:16 AM EET 6:20 PM EET
Nautical Twilight 4:48 AM EET 6:47 PM EET
Astronomical Twilight 4:21 AM EET 7:15 PM EET
Moon 5:11 PM EET (3/26) 4:41 AM EET (3/26)
Length of Visible Light 13h 04m
Length of Day
12h 17m
Waxing Gibbous, 99% of the Moon is Illuminated
Mar 26
Waxing Gibbous
Mar 27
Full
Apr 3
Last Quarter
Apr 10
New
Apr 18
First Quarter

Hourly Weather History & Observations

Time (EET) Temp. Dew Point Humidity Pressure Visibility Wind Dir Wind Speed Gust Speed Precip Events Conditions
12:00 AM 64.4 °F 35.6 °F 34% 29.86 in - Variable 2.3 mph - N/A   Clear
1:00 AM 64.4 °F 32.0 °F 30% 29.83 in - North 3.5 mph - N/A   Clear
2:00 AM 64.4 °F 30.2 °F 28% 29.83 in - Variable 2.3 mph - N/A   Clear
3:00 AM 62.6 °F 30.2 °F 30% 29.83 in - North 3.5 mph - N/A   Clear
4:00 AM 66.2 °F 26.6 °F 23% 29.83 in - North 5.8 mph - N/A   Clear
5:00 AM 66.2 °F 24.8 °F 21% 29.80 in - North 5.8 mph - N/A   Clear
6:00 AM 68.0 °F 26.6 °F 21% 29.80 in - NNE 6.9 mph - N/A   Clear
7:00 AM 69.8 °F 24.8 °F 18% 29.83 in - Variable 2.3 mph - N/A   Clear
8:00 AM 78.8 °F 33.8 °F 20% 29.83 in - NNE 2.3 mph - N/A   Clear
9:00 AM 84.2 °F 37.4 °F 19% 29.83 in - NE 2.3 mph - N/A   Clear
10:00 AM 89.6 °F 41.0 °F 18% 29.83 in - NE 3.5 mph - N/A   Clear
11:00 AM 89.6 °F 48.2 °F 24% 29.83 in - East 6.9 mph - N/A   Clear
12:00 PM 95.0 °F 26.6 °F 9% 29.83 in - SSE 4.6 mph - N/A   Clear
1:00 PM 95.0 °F 23.0 °F 8% 29.80 in - SSE 6.9 mph - N/A   Clear
2:00 PM 91.4 °F 35.6 °F 14% 29.77 in - SSE 8.1 mph - N/A   Clear
3:00 PM 93.2 °F 39.2 °F 15% 29.77 in - SSE 8.1 mph - N/A   Clear
4:00 PM 87.8 °F 42.8 °F 21% 29.74 in - SSE 9.2 mph - N/A   Clear
5:00 PM 84.2 °F 32.0 °F 15% 29.74 in - SSW 5.8 mph - N/A   Clear
6:00 PM 82.4 °F 26.6 °F 13% 29.74 in - SW 4.6 mph - N/A   Clear
7:00 PM 78.8 °F 21.2 °F 12% 29.74 in - WSW 2.3 mph - N/A   Clear
8:00 PM 77.0 °F 24.8 °F 14% 29.77 in - Calm Calm - N/A   Clear
9:00 PM 73.4 °F 32.0 °F 22% 29.80 in - Variable 2.3 mph - N/A   Clear
10:00 PM 73.4 °F 48.2 °F 41% 29.80 in - South 2.3 mph - N/A   Clear
11:00 PM 73.4 °F 50.0 °F 44% 29.80 in 5.0 mi South 2.3 mph - N/A   Unknown